World > North America > United States > Wisconsin   City of Appleton, WI
Hourly Weather in Appleton, WisconsinAppleton, Wisconsin Hourly Weather

Appleton, WI Hourly Weather

Hourly Weather Appleton, WisconsinHourly Weather in Appleton, WI
Lat: 44.26N, Lon: 88.4W  ICAO: KATW
Web Search
Appleton Weather Warning NWS WEATHER ALERT FOR THE APPLETON, WI AREA - Issued: 209 PM CST Wed Jan 19 2022 Appleton Weather Warning  

Our weather pages are very print friendly and they make great conversation starters.

Feedback

Appleton Hourly Weather

36 Hour Weather Scroll   °F Click to change Appleton hourly weather to Imperial units.Click to change Appleton hourly weather to Metric units. °C
Currently, Partly Cloudy, temperature is 16°F-9°C, dew point -0°F-18°C, humidity 48%. Wind direction is NW at 20 mph32 km/h with visibility of 10.00 mi16 km. Barometric pressure is 30 in1016 mb.

Jan 19
2:00 PM

Jan 19
3:00 PM

Jan 19
4:00 PM

Jan 19
5:00 PM

Jan 19
6:00 PM

Jan 19
7:00 PM

Jan 19
8:00 PM

Jan 19
9:00 PM

Jan 19
10:00 PM

Jan 19
11:00 PM

Jan 20
MIDNIGHT

Jan 20
1:00 AM

Jan 20
2:00 AM

Jan 20
3:00 AM

Jan 20
4:00 AM

Jan 20
5:00 AM

Jan 20
6:00 AM

Jan 20
7:00 AM

Jan 20
8:00 AM

Jan 20
9:00 AM

Jan 20
10:00 AM

Jan 20
11:00 AM

Jan 20
NOON

Jan 20
1:00 PM

Jan 20
2:00 PM

Jan 20
3:00 PM

Jan 20
4:00 PM

Jan 20
5:00 PM

Jan 20
6:00 PM

Jan 20
7:00 PM

Jan 20
8:00 PM

Jan 20
9:00 PM

Jan 20
10:00 PM

Jan 20
11:00 PM

Jan 21
MIDNIGHT

Jan 21
1:00 AM
Mostly Cloudy Mostly Cloudy Mostly Cloudy Partly Cloudy Partly Cloudy Partly Cloudy Partly Cloudy Partly Cloudy Partly Cloudy Mostly Clear Mostly Clear Mostly Clear Mostly Clear Mostly Clear Mostly Clear Clear Clear Clear Mostly Clear Mostly Clear Mostly Clear Partly Cloudy Partly Cloudy Partly Cloudy Partly Cloudy Partly Cloudy Partly Cloudy Mostly Clear Mostly Clear Mostly Clear Clear Clear Clear Clear Clear Clear
Mostly Cloudy Mostly Cloudy Mostly Cloudy Partly Cloudy Partly Cloudy Partly Cloudy Partly Cloudy Partly Cloudy Partly Cloudy Mostly Clear Mostly Clear Mostly Clear Mostly Clear Mostly Clear Mostly Clear Clear Clear Clear Mostly Clear Mostly Clear Mostly Clear Partly Cloudy Partly Cloudy Partly Cloudy Partly Cloudy Partly Cloudy Partly Cloudy Mostly Clear Mostly Clear Mostly Clear Clear Clear Clear Clear Clear Clear
14°F-10°C 14°F-10°C 13°F-11°C 12°F-11°C 11°F-12°C 10°F-12°C 9°F-13°C 8°F-13°C 7°F-14°C 6°F-14°C 5°F-15°C 4°F-16°C 4°F-16°C 3°F-16°C 2°F-17°C 1°F-17°C °F-18°C °F-18°C °F-18°C °F-18°C 1°F-17°C 3°F-16°C 4°F-16°C 5°F-15°C 5°F-15°C 6°F-14°C 5°F-15°C 5°F-15°C 4°F-16°C 4°F-16°C 3°F-16°C 3°F-16°C 3°F-16°C 2°F-17°C 2°F-17°C 2°F-17°C
- - - - - - - - - - - - - - - - - - - - - - - - - - - - - - - - - - - -
1% 1% 1% 1% 1% 0% 0% 0% 0% 0% 0% 0% 0% 0% 0% 0% 0% 0% 0% 0% 0% 0% 0% 0% 0% 0% 0% 0% 0% 0% 0% 0% 0% 0% 0% 0%
°F-18°C °F-18°C -2°F-19°C -2°F-19°C -2°F-19°C -3°F-19°C -4°F-20°C -3°F-19°C -4°F-20°C -5°F-21°C -4°F-20°C -6°F-21°C -6°F-21°C -6°F-21°C -8°F-22°C -8°F-22°C -8°F-22°C -9°F-23°C -10°F-23°C -9°F-23°C -10°F-23°C -9°F-23°C -8°F-22°C -9°F-23°C -9°F-23°C -8°F-22°C -9°F-23°C -9°F-23°C -8°F-22°C -9°F-23°C -8°F-22°C -7°F-22°C -8°F-22°C -7°F-22°C -6°F-21°C -7°F-22°C
53% 53% 50% 53% 55% 55% 55% 60% 60% 60% 65% 62% 62% 65% 62% 65% ** ** ** ** 59% 56% 56% 51% 51% 51% 51% 51% 56% 54% 59% 62% 59% 65% 68% 65%
NW NW NW NW NW NW NW NW NW WNW WNW WNW NW NW NW NW NW NW NW NW NW NW NW NW NW NW WNW WNW W W W W W W W W
13 mph 13 mph 13 mph 13 mph 13 mph 13 mph 11 mph 11 mph 11 mph 10 mph 10 mph 10 mph 9 mph 9 mph 9 mph 10 mph 10 mph 10 mph 9 mph 9 mph 9 mph 7 mph 7 mph 7 mph 6 mph 6 mph 6 mph 5 mph 5 mph 5 mph 4 mph 4 mph 4 mph 2 mph 2 mph 2 mph
10 mi16 km 10 mi16 km 10 mi16 km 10 mi16 km 10 mi16 km 10 mi16 km 10 mi16 km 10 mi16 km 10 mi16 km 10 mi16 km 10 mi16 km 10 mi16 km 10 mi16 km 10 mi16 km 10 mi16 km 10 mi16 km 10 mi16 km 10 mi16 km 10 mi16 km 10 mi16 km 10 mi16 km 10 mi16 km 10 mi16 km 10 mi16 km 10 mi16 km 10 mi16 km 10 mi16 km 10 mi16 km 10 mi16 km 10 mi16 km 10 mi16 km 10 mi16 km 10 mi16 km 10 mi16 km 10 mi16 km 10 mi16 km
Hour (CST)
Weather
Clouds
Temperature
Precip. Type
POP
Dewpoint
Humidity
Wind Direction
Wind Speed
Visibility
POP = Probability of Precipitation. ** Indicates missing data/values from model statistics.

24 Hour Forecast

Today - Blustery. Colder. Mostly sunny. Some blowing and drifting snow. Highs in the middle teens. Northwest wind 15 to 25 mph.
Tonight - Colder. Mostly clear. Lows zero to 5 below. Northwest wind 10 to 15 mph. Wind chills to 20 below zero.

48 Hour Forecast API Feed


Wed, Jan 19
2:00 pm

Wed, Jan 19
3:00 pm

Wed, Jan 19
4:00 pm

Wed, Jan 19
5:00 pm

Wed, Jan 19
6:00 pm

Wed, Jan 19
7:00 pm

Wed, Jan 19
8:00 pm

Wed, Jan 19
9:00 pm

Wed, Jan 19
10:00 pm

Wed, Jan 19
11:00 pm

Thu, Jan 20
Midnight

Thu, Jan 20
1:00 am

Thu, Jan 20
2:00 am

Thu, Jan 20
3:00 am

Thu, Jan 20
4:00 am

Thu, Jan 20
5:00 am

Thu, Jan 20
6:00 am

Thu, Jan 20
7:00 am

Thu, Jan 20
8:00 am

Thu, Jan 20
9:00 am

Thu, Jan 20
10:00 am

Thu, Jan 20
11:00 am

Thu, Jan 20
Noon

Thu, Jan 20
1:00 pm

Thu, Jan 20
2:00 pm

Thu, Jan 20
3:00 pm

Thu, Jan 20
4:00 pm

Thu, Jan 20
5:00 pm

Thu, Jan 20
6:00 pm

Thu, Jan 20
7:00 pm

Thu, Jan 20
8:00 pm

Thu, Jan 20
9:00 pm

Thu, Jan 20
10:00 pm

Thu, Jan 20
11:00 pm

Fri, Jan 21
Midnight

Fri, Jan 21
1:00 am

Fri, Jan 21
2:00 am

Fri, Jan 21
3:00 am

Fri, Jan 21
4:00 am

Fri, Jan 21
5:00 am

Fri, Jan 21
6:00 am

Fri, Jan 21
7:00 am

Fri, Jan 21
8:00 am

Fri, Jan 21
9:00 am

Fri, Jan 21
10:00 am

Fri, Jan 21
11:00 am

Fri, Jan 21
Noon

Fri, Jan 21
1:00 pm
OvercastCloudyOvercastOvercastOvercastPartly CloudyPartly CloudyClearClearClearClearClearClearClearClearClearClearClearSunnySunnySunnySunnySunnyPartly CloudyCloudyCloudyCloudyPartly CloudyClearClearMistMistMistMistMistMistMistMistFreezing FogFreezing FogFreezing FogFreezing FogFreezing FogMistSunnySunnySunnySunny
Overcast Cloudy Overcast Overcast Overcast Partly cloudy Partly cloudy Clear Clear Clear Clear Clear Clear Clear Clear Clear Clear Clear Sunny Sunny Sunny Sunny Sunny Partly cloudy Cloudy Cloudy Cloudy Partly cloudy Clear Clear Mist Mist Mist Mist Mist Mist Mist Mist Freezing fog Freezing fog Freezing fog Freezing fog Freezing fog Mist Sunny Sunny Sunny Sunny
12°F
-11°C
13°F
-10°C
14°F
-10°C
13°F
-11°C
12°F
-11°C
11°F
-12°C
8°F
-13°C
7°F
-14°C
6°F
-15°C
4°F
-15°C
3°F
-16°C
2°F
-17°C
1°F
-17°C
-1°F
-18°C
-2°F
-19°C
-3°F
-19°C
-3°F
-20°C
-4°F
-20°C
-5°F
-21°C
-5°F
-21°C
-3°F
-19°C
2°F
-17°C
6°F
-15°C
6°F
-15°C
7°F
-14°C
8°F
-13°C
9°F
-13°C
8°F
-14°C
3°F
-16°C
3°F
-16°C
-0°F
-18°C
-1°F
-19°C
-2°F
-19°C
-3°F
-19°C
-3°F
-20°C
-4°F
-20°C
-4°F
-20°C
-5°F
-20°C
-5°F
-21°C
-5°F
-20°C
-5°F
-21°C
-5°F
-21°C
-5°F
-20°C
-3°F
-20°C
2°F
-17°C
9°F
-13°C
13°F
-11°C
16°F
-9°C
7°F
-14°C
8°F
-13°C
8°F
-13°C
7°F
-14°C
6°F
-14°C
5°F
-15°C
3°F
-16°C
2°F
-16°C
2°F
-17°C
1°F
-17°C
-0°F
-18°C
-1°F
-18°C
-2°F
-19°C
-3°F
-20°C
-4°F
-20°C
-5°F
-20°C
-5°F
-21°C
-6°F
-21°C
-7°F
-22°C
-7°F
-22°C
-5°F
-21°C
-2°F
-19°C
2°F
-17°C
1°F
-17°C
2°F
-17°C
3°F
-16°C
3°F
-16°C
4°F
-16°C
1°F
-17°C
1°F
-17°C
-1°F
-19°C
-2°F
-19°C
-3°F
-20°C
-4°F
-20°C
-4°F
-20°C
-5°F
-20°C
-5°F
-21°C
-5°F
-21°C
-5°F
-21°C
-5°F
-21°C
-5°F
-21°C
-5°F
-21°C
-5°F
-21°C
-4°F
-20°C
-1°F
-18°C
5°F
-15°C
7°F
-14°C
9°F
-13°C
30.21 in
1023 mb
30.21 in
1023 mb
30.24 in
1024 mb
30.3 in
1026 mb
30.33 in
1027 mb
30.36 in
1028 mb
30.42 in
1030 mb
30.45 in
1031 mb
30.47 in
1032 mb
30.47 in
1032 mb
30.5 in
1033 mb
30.53 in
1034 mb
30.53 in
1034 mb
30.56 in
1035 mb
30.59 in
1036 mb
30.59 in
1036 mb
30.62 in
1037 mb
30.62 in
1037 mb
30.65 in
1038 mb
30.68 in
1039 mb
30.68 in
1039 mb
30.68 in
1039 mb
30.68 in
1039 mb
30.65 in
1038 mb
30.65 in
1038 mb
30.62 in
1037 mb
30.62 in
1037 mb
30.62 in
1037 mb
30.65 in
1038 mb
30.65 in
1038 mb
30.65 in
1038 mb
30.65 in
1038 mb
30.65 in
1038 mb
30.65 in
1038 mb
30.65 in
1038 mb
30.65 in
1038 mb
30.65 in
1038 mb
30.65 in
1038 mb
30.65 in
1038 mb
30.65 in
1038 mb
30.62 in
1037 mb
30.62 in
1037 mb
30.62 in
1037 mb
30.65 in
1038 mb
30.62 in
1037 mb
30.62 in
1037 mb
30.59 in
1036 mb
30.56 in
1035 mb
80%80%78%77%78%79%80%82%84%86%87%88%88%89%89%90%90%90%91%91%88%84%82%80%78%77%78%85%92%94%95%95%95%96%96%96%96%97%97%98%98%98%97%96%89%82%76%72%
NWWNWNWNWNWNWNWNWNWNWNWNWNWNWNWNWNWNWNWNWNWNWNWNWNWNWNWWNWWNWWNWWNWWNWWNWWNWWNWWNWWWWSWSWWSWSWSSWSSWSSWSSWSSWSSW
15 mph
24 km/h
15 mph
24 km/h
15 mph
23 km/h
14 mph
23 km/h
13 mph
21 km/h
13 mph
21 km/h
12 mph
19 km/h
11 mph
18 km/h
10 mph
16 km/h
10 mph
16 km/h
10 mph
16 km/h
10 mph
16 km/h
10 mph
16 km/h
10 mph
15 km/h
9 mph
15 km/h
9 mph
15 km/h
9 mph
14 km/h
8 mph
13 km/h
7 mph
12 km/h
7 mph
12 km/h
8 mph
13 km/h
7 mph
12 km/h
6 mph
10 km/h
6 mph
10 km/h
6 mph
9 km/h
6 mph
9 km/h
6 mph
9 km/h
4 mph
6 km/h
3 mph
5 km/h
4 mph
6 km/h
4 mph
7 km/h
4 mph
6 km/h
4 mph
6 km/h
3 mph
5 km/h
3 mph
5 km/h
3 mph
5 km/h
3 mph
5 km/h
3 mph
5 km/h
3 mph
4 km/h
3 mph
4 km/h
3 mph
5 km/h
3 mph
5 km/h
3 mph
5 km/h
4 mph
6 km/h
5 mph
8 km/h
7 mph
11 km/h
9 mph
14 km/h
10 mph
15 km/h
0%0%0%0%0%0%0%0%0%0%0%0%0%0%0%0%0%0%0%0%0%0%0%0%0%0%0%0%0%0%0%0%0%0%0%0%0%0%0%0%0%0%0%0%0%0%0%0%
6 mi
10 km
6 mi
10 km
6 mi
10 km
6 mi
10 km
6 mi
10 km
6 mi
10 km
6 mi
10 km
6 mi
10 km
6 mi
10 km
6 mi
10 km
6 mi
10 km
6 mi
10 km
6 mi
10 km
6 mi
10 km
6 mi
10 km
6 mi
10 km
6 mi
10 km
6 mi
10 km
6 mi
10 km
6 mi
10 km
6 mi
10 km
6 mi
10 km
6 mi
10 km
6 mi
10 km
6 mi
10 km
6 mi
10 km
6 mi
10 km
6 mi
10 km
6 mi
10 km
6 mi
10 km
1 mi
2 km
1 mi
2 km
1 mi
2 km
1 mi
2 km
1 mi
2 km
1 mi
2 km
1 mi
2 km
1 mi
2 km
0 mi
0 km
0 mi
0 km
0 mi
0 km
0 mi
0 km
0 mi
0 km
1 mi
2 km
6 mi
10 km
6 mi
10 km
6 mi
10 km
6 mi
10 km

Day/Time
Weather
Condition
Temperature
Dew Point
Pressure
Humidity
Wind Direction
Wind Speed
Prob Precip %
Visibility
Prob Precip % = Probability of Precipitation.